Skip Page Navigation
NASA JPL Caltech
NASA Logo - Jet Propulsion Laboratory + View the NASA Portal
+ Near-Earth Object (NEO) Program
Search JPL
JPL Home Earth Solar System Stars & Galaxies Technology
JPL Solar System Dynamics
BODIES ORBITS EPHEMERIDES TOOLS PHYSICAL DATA DISCOVERY FAQ SITE MAP
JPL Small-Body Database Browser
Search: [ help ]  
74503 Madola (1999 DN4)
Classification: Main-belt Asteroid          SPK-ID: 2074503
Ephemeris | Orbit Diagram | Orbital Elements | Physical Parameters | Discovery Circumstances ]

[ hide orbit diagram ]
Orbit Diagram
Note: Make sure you have Java enabled on your browser to see the applet. This applet is provided as a 3D orbit visualization tool. The applet was implemented using 2-body methods, and hence should not be used for determining accurate long-term trajectories (over several years or decades) or planetary encounter circumstances. For accurate long-term ephemerides, please instead use our Horizons system.
Orbit Viewer

Additional Notes: the orbits shown in the applet are color coded. The planets are white lines, and the asteroid/comet is a blue line. The bright white line indicates the portion of the orbit that is above the ecliptic plane, and the darker portion is below the ecliptic plane. Likewise for the asteroid/comet orbit, the light blue indicates the portion above the ecliptic plane, and the dark blue the portion below the ecliptic plane.

Orbit Viewer applet originally written and kindly provided by Osamu Ajiki (AstroArts), and further modified by Ron Baalke (JPL).


Orbital Elements at Epoch 2456400.5 (2013-Apr-18.0) TDB
Reference: MPO244766 (heliocentric ecliptic J2000)
 Element Value Uncertainty (1-sigma)   Units 
e 0.1861183 n/a  
a 3.0127272 n/a AU
q 2.4520035 n/a AU
i 17.17147 n/a deg
node 357.16616 n/a deg
peri 200.87749 n/a deg
M 222.35881 n/a deg
tp 2457130.7709826
(2015-Apr-18.27098260)
n/a JED
period 1910.0209301
5.23
n/a
n/a
d
yr
n 0.18847961 n/a deg/d
Q 3.5734509 n/a AU
  Orbit Determination Parameters
   # obs. used (total)      132  
   first obs. used      1994-??-??  
   last obs. used      2012-11-01  
   # oppositions      9  
   planetary ephem.      DE403  
   condition code      0  
   fit RMS      0.62  
   data source      MPC:mpn  
   producer      MPCLINUX  

Additional Information
 T_jup = 3.156 

Ephemeris | Orbit Diagram | Orbital Elements | Physical Parameters | Discovery Circumstances ]

Physical Parameter Table
Parameter Symbol Value Units Sigma Reference Notes
absolute magnitude H 15.1 mag n/a MPO244766  

74503 Madola           Discovered 1999 Feb. 23 by D. Bergeron at Val-des-Bois.
Christian Marois (b. 1974), René Doyon (b. 1963) and David Lafrenière (b. 1978) developed instruments that allowed seeing an extrasolar planetary system. Doyon was director of the Mt. Mégantic Observatory; Marois and Lafrenière were postdoctoral fellows at the Herzberg Institute and the University of Toronto.
NOTE: some special characters may not display properly (any characters within {} are an attempt to place the proper accent above a character)
Reference: 20090409/MPCPages.arcLast Updated: 2009-04-10
Ephemeris | Orbit Diagram | Orbital Elements | Physical Parameters | Discovery Circumstances ]
ABOUT SSD CREDITS/AWARDS PRIVACY/COPYRIGHT GLOSSARY LINKS
FirstGov 2013-May-23 23:46 UT
(server date/time)  
NASA Home Page
Site Manager:   Donald K. Yeomans
Webmaster  Alan B. Chamberlin